TimeCST,TemperatureF,Dew PointF,Humidity,Sea Level PressureIn,VisibilityMPH,Wind Direction,Wind SpeedMPH,Gust SpeedMPH,PrecipitationIn,Events,Conditions,WindDirDegrees,DateUTC
12:55 AM,35.8,30.7,82,29.67,10.0,SW,6.9,-,N/A,,Clear,230,2011-12-27 06:55:00
1:55 AM,36.7,31.5,81,29.63,10.0,WSW,9.2,-,N/A,,Overcast,240,2011-12-27 07:55:00
2:55 AM,34.2,31.1,89,29.65,10.0,WSW,9.2,-,N/A,,Partly Cloudy,250,2011-12-27 08:55:00
3:55 AM,28.9,28.6,99,29.64,10.0,West,8.1,-,N/A,,Clear,270,2011-12-27 09:55:00
4:55 AM,35.4,33.1,91,29.63,10.0,WNW,10.4,-,N/A,,Overcast,300,2011-12-27 10:55:00
5:55 AM,35.8,32.9,89,29.65,10.0,WNW,9.2,-,N/A,,Overcast,290,2011-12-27 11:55:00
6:55 AM,37.4,32.0,81,29.67,10.0,NW,16.1,-,N/A,,Overcast,310,2011-12-27 12:55:00
7:55 AM,37.4,28.4,70,29.69,10.0,NW,13.8,19.6,N/A,,Overcast,310,2011-12-27 13:55:00
8:55 AM,37.4,28.4,70,29.70,10.0,NW,13.8,20.7,N/A,,Overcast,320,2011-12-27 14:55:00
9:55 AM,37.4,28.4,70,29.73,10.0,NW,15.0,-,N/A,,Overcast,320,2011-12-27 15:55:00
10:55 AM,35.6,26.6,70,29.74,10.0,NNW,20.7,31.1,N/A,,Overcast,330,2011-12-27 16:55:00
11:55 AM,33.8,24.8,70,29.76,10.0,NNW,16.1,28.8,N/A,,Overcast,330,2011-12-27 17:55:00
12:55 PM,35.6,23.0,60,29.76,10.0,NNW,20.7,26.5,N/A,,Mostly Cloudy,330,2011-12-27 18:55:00
1:55 PM,32.0,21.2,64,29.81,10.0,NNW,21.9,27.6,N/A,,Scattered Clouds,340,2011-12-27 19:55:00
2:55 PM,32.0,19.4,60,29.86,10.0,NW,12.7,23.0,N/A,,Scattered Clouds,320,2011-12-27 20:55:00
3:55 PM,28.4,17.6,64,29.90,10.0,NNW,16.1,24.2,N/A,,Scattered Clouds,330,2011-12-27 21:55:00
4:55 PM,26.6,17.6,69,29.95,10.0,NNW,15.0,20.7,N/A,,Scattered Clouds,330,2011-12-27 22:55:00
5:55 PM,23.0,15.8,74,29.96,10.0,NNW,8.1,-,N/A,,Scattered Clouds,330,2011-12-27 23:55:00
6:55 PM,23.0,15.8,74,29.99,10.0,NW,11.5,-,N/A,,Clear,320,2011-12-28 00:55:00
7:55 PM,19.4,14.0,80,30.01,10.0,NNW,5.8,-,N/A,,Clear,330,2011-12-28 01:55:00
8:55 PM,15.8,12.2,86,30.01,10.0,NNW,5.8,-,N/A,,Clear,330,2011-12-28 02:55:00
9:55 PM,19.4,14.0,80,30.05,10.0,NW,5.8,-,N/A,,Scattered Clouds,310,2011-12-28 03:55:00
10:55 PM,19.4,14.0,80,30.06,10.0,North,6.9,-,N/A,,Overcast,350,2011-12-28 04:55:00
11:55 PM,17.6,12.2,79,30.05,10.0,North,5.8,-,N/A,,Overcast,350,2011-12-28 05:55:00